CW7345 Greenlaw SCT UK current weather conditions

sailwx.info

Wind from 189 at 4 knots gusting 15

Air temperature 1.7° C
Dewpoint -0.4° C

Last reported at 2019-Dec-11 17:05 UTC.
Time now 2019-Dec-11 17:33 UTC

Location: N 55°42' W 002°28'.
View on Google Maps.

See reports from other nearby stations

  
Tides and Currents Weather Stations Pressure Air Temp Water Temp Dewpoint Dewpoint Depression Visibility Wind Speed Wind Dir Waves Ship Positions
date/time (UTC)wind fromknots sea level pressurealtimeterstation pressurevisibilityair tempwater tempwave heightnotes
2019-Dec-11 17:05 189 4 gusting 15 1.7
2019-Dec-11 16:55 216 4 gusting 15 1.7
2019-Dec-11 16:45 202 4 gusting 17 1.7
2019-Dec-11 16:35 185 1 gusting 17 1.7
2019-Dec-11 16:25 206 2 gusting 11 1.7
2019-Dec-11 16:15 200 2 gusting 11 2.2
2019-Dec-11 15:45 202 2.8
2019-Dec-11 15:35 202 2 gusting 11 2.8
2019-Dec-11 15:15 182 1 gusting 14 3.3
2019-Dec-11 15:05 211 1 gusting 18 3.3
2019-Dec-11 14:55 210 1 gusting 13 3.3
2019-Dec-11 14:45 212 4 gusting 17 3.3
2019-Dec-11 14:25 191 10 gusting 18 3.3
2019-Dec-11 14:05 218 7 gusting 19 3.9
2019-Dec-11 13:55 187 8 gusting 30 3.9
2019-Dec-11 13:35 183 5 gusting 22 3.9
2019-Dec-11 13:25 200 4 gusting 19 3.9
2019-Dec-11 13:15 173 2 gusting 22 3.9
2019-Dec-11 12:35 213 4 gusting 21 4.4
2019-Dec-11 12:25 198 6 gusting 19 4.4
2019-Dec-11 12:05 212 5 gusting 33 4.4
2019-Dec-11 11:55 176 8 gusting 26 4.4
2019-Dec-11 11:25 192 6 gusting 26 3.9
2019-Dec-11 11:15 216 7 gusting 26 3.9
2019-Dec-11 11:05 204 7 gusting 24 3.9
2019-Dec-11 10:55 229 6 gusting 19 3.9
2019-Dec-11 10:45 196 7 gusting 20 3.9
2019-Dec-11 10:35 201 3 gusting 22 3.3
2019-Dec-11 10:05 236 6 gusting 18 2.8
2019-Dec-11 09:55 272 6 gusting 20 2.8
2019-Dec-11 09:45 223 5 gusting 25 2.8
2019-Dec-11 09:25 203 6 gusting 15 2.8
2019-Dec-11 09:15 196 4 gusting 18 2.8
2019-Dec-11 09:05 191 5 gusting 24 2.8
2019-Dec-11 08:55 207 7 gusting 27 2.8
2019-Dec-11 08:45 201 2 gusting 14 2.8
2019-Dec-11 08:35 211 7 gusting 19 2.8
2019-Dec-11 08:25 199 2 gusting 20 2.8
2019-Dec-11 08:15 192 5 gusting 19 2.8
2019-Dec-11 08:05 193 10 gusting 25 2.8
2019-Dec-11 07:45 184 7 gusting 24 2.8
2019-Dec-11 07:35 203 13 gusting 20 2.8
2019-Dec-11 07:15 166 9 gusting 28 2.8
2019-Dec-11 07:05 190 7 gusting 25 2.8
2019-Dec-11 06:45 197 11 gusting 37 2.8
2019-Dec-11 06:35 182 9 gusting 27 2.8
2019-Dec-11 06:25 188 11 gusting 33 2.8
2019-Dec-11 05:35 190 11 gusting 26 2.2
2019-Dec-11 05:25 166 9 gusting 24 2.2
2019-Dec-11 05:15 203 8 gusting 26 2.2
2019-Dec-11 05:05 215 7 gusting 19 2.2
2019-Dec-11 04:55 209 2 gusting 12 2.2
2019-Dec-11 04:35 192 1 gusting 11 2.2
2019-Dec-11 04:25 209 0 gusting 15 2.2
2019-Dec-11 04:15 202 0 gusting 12 2.2
2019-Dec-11 03:55 248 0 gusting 10 2.2
2019-Dec-11 03:45 212 1 gusting 6 2.2
2019-Dec-11 03:15 182 4 gusting 13 2.2
2019-Dec-11 03:05 196 7 gusting 17 2.2
2019-Dec-11 02:55 205 5 gusting 14 2.2
2019-Dec-11 02:45 191 3 gusting 12 2.2
2019-Dec-11 02:35 202 4 gusting 10 2.8
2019-Dec-11 02:25 204 5 gusting 13 2.8
2019-Dec-11 02:15 207 4 gusting 18 2.8
2019-Dec-11 02:05 217 7 gusting 17 2.8
2019-Dec-11 01:55 301 4 gusting 13 2.8
2019-Dec-11 01:25 230 7 gusting 26 2.8
2019-Dec-11 01:15 231 6 gusting 30 2.8
2019-Dec-11 00:55 239 1 gusting 19 2.2
2019-Dec-11 00:45 210 3 gusting 17 2.8
2019-Dec-11 00:25 174 5 gusting 13 2.8
2019-Dec-10 23:45 238 6 gusting 19 3.3
2019-Dec-10 23:35 172 6 gusting 20 3.3
2019-Dec-10 22:55 197 6 gusting 22 3.3
2019-Dec-10 22:35 201 4 gusting 13 3.3
2019-Dec-10 22:25 242 5 gusting 18 3.3
2019-Dec-10 22:15 207 5 gusting 15 3.3
2019-Dec-10 22:05 260 0 gusting 13 2.8
2019-Dec-10 21:55 217 3 gusting 19 2.8
2019-Dec-10 21:35 221 0 gusting 11 3.3
2019-Dec-10 21:15 219 4 gusting 13 3.3
2019-Dec-10 21:05 243 6 gusting 22 2.8
2019-Dec-10 20:55 207 4 gusting 17 2.8
2019-Dec-10 20:45 194 6 gusting 18 3.3
2019-Dec-10 20:35 257 6 gusting 20 3.3
2019-Dec-10 20:25 204 10 gusting 20 3.3
2019-Dec-10 20:05 256 4 gusting 14 3.3
2019-Dec-10 19:55 213 8 gusting 28 3.3
2019-Dec-10 19:45 258 8 gusting 31 3.3
2019-Dec-10 19:35 222 4 gusting 12 3.3
2019-Dec-10 19:05 221 6 gusting 17 3.9
2019-Dec-10 18:55 189 5 gusting 17 4.4
2019-Dec-10 18:35 280 2 gusting 8 5.0
2019-Dec-10 18:25 268 2 gusting 10 5.0
2019-Dec-10 18:15 190 1 gusting 10 5.0
2019-Dec-10 17:55 284 3 gusting 10 5.6
2019-Dec-10 17:45 258 5 gusting 17 5.6
2019-Dec-10 17:25 201 1 gusting 15 5.6
2019-Dec-10 17:15 177 4 gusting 18 6.1
2019-Dec-10 17:05 071 5 gusting 11 6.1
2019-Dec-10 16:55 261 6 gusting 17 6.1
2019-Dec-10 16:45 278 7 gusting 22 6.7
2019-Dec-10 16:35 155 4 gusting 19 6.7
2019-Dec-10 16:25 196 6 gusting 19 7.2
2019-Dec-10 16:05 260 4 gusting 18 8.3
2019-Dec-10 15:55 251 6 gusting 18 10.0
2019-Dec-10 15:45 195 17 gusting 33 10.6
2019-Dec-10 15:35 194 17 gusting 37 10.6
2019-Dec-10 15:15 192 12 gusting 32 10.6
2019-Dec-10 14:55 160 14 gusting 41 10.6
2019-Dec-10 14:45 170 15 gusting 33 10.6
2019-Dec-10 14:35 156 13 gusting 26 10.0
2019-Dec-10 14:25 190 17 gusting 45 10.0
2019-Dec-10 14:05 176 15 gusting 35 9.4
2019-Dec-10 13:55 173 15 gusting 33 8.9
2019-Dec-10 13:25 158 12 gusting 24 8.3
2019-Dec-10 13:15 178 11 gusting 26 8.3
2019-Dec-10 13:05 171 11 gusting 32 8.3
2019-Dec-10 12:55 182 10 gusting 34 8.3
2019-Dec-10 12:45 180 13 gusting 28 8.3
2019-Dec-10 12:35 177 8 gusting 38 7.8
2019-Dec-10 12:25 170 13 gusting 24 7.8
2019-Dec-10 11:45 172 11 gusting 27 7.2
2019-Dec-10 11:35 172 7 gusting 31 7.2
2019-Dec-10 11:25 194 12 gusting 44 7.2
2019-Dec-10 11:05 180 2 gusting 31 6.7
2019-Dec-10 10:45 158 10 gusting 37 6.7
2019-Dec-10 10:35 194 12 gusting 26 6.1
2019-Dec-10 10:25 183 6 gusting 22 6.1
2019-Dec-10 10:15 167 5 gusting 19 6.1
2019-Dec-10 10:05 200 8 gusting 21 6.1
2019-Dec-10 09:55 179 9 gusting 25 6.1
2019-Dec-10 09:45 165 9 gusting 19 6.1
2019-Dec-10 09:25 166 11 gusting 25 6.1
2019-Dec-10 09:15 200 11 gusting 31 5.6
2019-Dec-10 09:05 206 12 gusting 32 5.6
2019-Dec-10 08:45 165 12 gusting 30 5.6
2019-Dec-10 08:35 182 17 gusting 28 5.6
2019-Dec-10 08:25 133 12 gusting 30 5.6
2019-Dec-10 08:15 175 11 gusting 30 5.6
2019-Dec-10 08:05 191 10 gusting 28 5.6
2019-Dec-10 07:55 207 12 gusting 27 5.6
2019-Dec-10 07:45 209 9 gusting 27 5.6
2019-Dec-10 07:35 183 9 gusting 27 5.6
2019-Dec-10 07:25 156 6 gusting 19 5.6
2019-Dec-10 07:15 179 8 gusting 21 5.6
2019-Dec-10 07:05 153 6 gusting 25 5.6
2019-Dec-10 06:55 183 8 gusting 25 5.0
2019-Dec-10 06:45 178 7 gusting 21 5.0
2019-Dec-10 06:15 137 5 gusting 14 5.0
2019-Dec-10 06:05 158 4 gusting 21 5.0
2019-Dec-10 05:45 150 6 gusting 22 5.0
2019-Dec-10 05:35 166 10 gusting 27 5.0
2019-Dec-10 05:15 185 11 gusting 27 5.0
2019-Dec-10 05:05 177 10 gusting 30 5.0
2019-Dec-10 04:35 160 4 gusting 17 4.4
2019-Dec-10 04:15 186 4 gusting 20 3.9
2019-Dec-10 03:55 169 3 gusting 14 3.3
2019-Dec-10 03:25 188 2 gusting 13 3.3
2019-Dec-10 03:05 181 10 gusting 19 2.8
2019-Dec-10 02:55 191 5 gusting 20 2.8
2019-Dec-10 02:35 210 5 gusting 12 2.2
2019-Dec-10 02:25 214 2 gusting 18 2.2
2019-Dec-10 02:05 160 2 gusting 11 1.7
2019-Dec-10 01:55 197 2 gusting 14 1.7
2019-Dec-10 01:45 158 1.1
2019-Dec-10 01:05 180 0 gusting 13 0.6
2019-Dec-10 00:45 225 -0.6
2019-Dec-10 00:35 225 -0.6
2019-Dec-10 00:25 270 -0.6
2019-Dec-10 00:15 270 -0.6
2019-Dec-09 23:35 225 -1.1
2019-Dec-09 23:25 270 -1.1
2019-Dec-09 23:15 270 -1.1
2019-Dec-09 23:05 270 -1.1
2019-Dec-09 22:45 270 -1.1
2019-Dec-09 22:35 248 -1.1
2019-Dec-09 22:25 270 -1.1
2019-Dec-09 22:15 225 -1.7
2019-Dec-09 22:05 270 -1.7
2019-Dec-09 21:45 270 -1.7
2019-Dec-09 21:35 270 -1.7
2019-Dec-09 21:25 270 -1.7
2019-Dec-09 21:15 270 -1.7
2019-Dec-09 21:05 270 -1.7
2019-Dec-09 20:55 270 -1.7
2019-Dec-09 20:45 270 -1.1
2019-Dec-09 20:25 270 -1.1
2019-Dec-09 20:15 270 -1.1
2019-Dec-09 20:05 270 -1.1
2019-Dec-09 19:55 270 -1.1
2019-Dec-09 19:45 270 -1.1
2019-Dec-09 19:35 270 -0.6
2019-Dec-09 19:25 270 -0.6
2019-Dec-09 19:15 270 -1.1
2019-Dec-09 19:05 270 -1.1
2019-Dec-09 18:55 270 -0.6
2019-Dec-09 18:45 270 -0.6
2019-Dec-09 18:35 270 -0.6
2019-Dec-09 18:25 270 -0.0
2019-Dec-09 18:15 270 -0.0
2019-Dec-09 18:05 270 -0.0
2019-Dec-09 17:55 202 -0.0
2019-Dec-09 17:45 202 0.6
2019-Dec-09 17:38 292 0.6
2019-Dec-09 17:25 292 0.6
2019-Dec-09 17:15 292 0.6
2019-Dec-09 17:05 248 1.1